TimePDT,TemperatureF,Dew PointF,Humidity,Sea Level PressureIn,VisibilityMPH,Wind Direction,Wind SpeedMPH,Gust SpeedMPH,PrecipitationIn,Events,Conditions,WindDirDegrees,DateUTC
12:53 AM,71.1,53.1,53,29.93,10.0,NW,18.4,24.2,N/A,,Clear,320,2013-07-20 07:53:00
1:53 AM,70.0,52.0,53,29.92,10.0,NW,19.6,26.5,N/A,,Clear,310,2013-07-20 08:53:00
2:53 AM,70.0,50.0,49,29.91,10.0,NW,26.5,31.1,N/A,,Clear,320,2013-07-20 09:53:00
3:53 AM,69.1,48.0,47,29.91,10.0,NW,23.0,32.2,N/A,,Clear,320,2013-07-20 10:53:00
4:53 AM,69.1,46.9,45,29.90,10.0,NW,20.7,28.8,N/A,,Clear,320,2013-07-20 11:53:00
5:53 AM,64.0,46.9,54,29.91,10.0,West,10.4,-,N/A,,Clear,280,2013-07-20 12:53:00
6:53 AM,71.1,46.0,41,29.92,10.0,NW,17.3,-,N/A,,Clear,320,2013-07-20 13:53:00
7:53 AM,75.0,45.0,34,29.92,10.0,NW,19.6,26.5,N/A,,Clear,320,2013-07-20 14:53:00
8:53 AM,78.1,46.0,32,29.91,10.0,NW,20.7,31.1,N/A,,Clear,320,2013-07-20 15:53:00
9:53 AM,82.0,48.0,30,29.90,10.0,NNW,21.9,28.8,N/A,,Clear,330,2013-07-20 16:53:00
10:53 AM,86.0,45.0,24,29.89,10.0,NW,23.0,-,N/A,,Clear,310,2013-07-20 17:53:00
11:53 AM,90.0,39.9,17,29.87,10.0,NW,21.9,27.6,N/A,,Clear,320,2013-07-20 18:53:00
12:53 PM,93.0,39.9,16,29.86,10.0,NW,21.9,29.9,N/A,,Clear,310,2013-07-20 19:53:00
1:53 PM,95.0,32.0,11,29.85,10.0,WNW,23.0,29.9,N/A,,Clear,290,2013-07-20 20:53:00
2:53 PM,95.0,34.0,12,29.84,10.0,WNW,23.0,28.8,N/A,,Clear,300,2013-07-20 21:53:00
3:53 PM,93.9,33.1,12,29.83,10.0,WNW,20.7,31.1,N/A,,Clear,300,2013-07-20 22:53:00
4:53 PM,91.0,35.1,14,29.83,10.0,NW,24.2,34.5,N/A,,Clear,310,2013-07-20 23:53:00
5:53 PM,89.1,34.0,14,29.83,10.0,NW,20.7,35.7,N/A,,Clear,310,2013-07-21 00:53:00
6:53 PM,84.9,37.0,18,29.82,10.0,NW,25.3,33.4,N/A,,Clear,310,2013-07-21 01:53:00
7:53 PM,81.0,39.9,23,29.83,10.0,NW,19.6,28.8,N/A,,Clear,310,2013-07-21 02:53:00
8:53 PM,75.0,41.0,29,29.83,10.0,NNW,12.7,-,N/A,,Clear,330,2013-07-21 03:53:00
9:53 PM,73.0,46.9,39,29.83,10.0,NW,16.1,-,N/A,,Clear,310,2013-07-21 04:53:00
10:53 PM,72.0,50.0,46,29.83,10.0,NNW,18.4,24.2,N/A,,Clear,330,2013-07-21 05:53:00
11:53 PM,71.1,48.0,44,29.82,10.0,NW,21.9,31.1,N/A,,Clear,320,2013-07-21 06:53:00